Race Results for
Another Dam Race
Parker, AZ
(Event Information)
View By:
This is a non-competitive event
Stage Race on 03/25/2001

Note: Ranking points are NOT upgrade points. An explanation of ranking points can be found here.


Men - Junior - JR - 10-14

 Place NameCity, StateTime USAC #BibTeam
1 Preston Moon   Usaf Academy, CO1:51:40 160412  958 -
2 Wesley Seely   Huntington Beach, CA1:51:50 130052  961 TeamZeroWait
3 Brian Janezic   Millersville, PA1:58:12 2  957 -

Men - Junior - JR - 15-18

 Place NameCity, StateTime USAC #BibTeam
1 Jesse Anthony   Newbury Park, CA1:49:56 154883  951 SaturnDevelopmentCyclinBeverly
2 Aaron Duenez   Lake Forest, CA1:51:39 149085  956 TeamZeroWait
3 David (Ryan) Chan   Kingman, AZ1:52:52 145945  955 TeamZeroWait
4 Patrick Yiu   1:58:18  967 -
5 Travis Predmore   Murrieta, CA2:06:15 166263  960 -
6 Eddo Weijer   Millersville, PA2:08:30 2  965 -

Men - Master - MR - 45-49

 Place NameCity, StateTime USAC #BibTeam
1 Kalman Szkalak (1 - Cat2)   Capistrano Beach, CA3:09:49 54522  834 -
2 Dirk Cowley   Salt Lake City, UT3:09:54 7974  809 -
3 Chuck Trayer   Lake Havasu City, AZ3:12:44 61409  836 -
4 Brad Bylynd   Laguna Niguel, CA3:12:44 48348  804 -
5 Kenny Fuller   Corona Del Mar, CA3:12:49 46765  812 SimplyFit
6 Anthony Pratt   Temple City, CA3:12:49 51338  827 -
7 Rick Swanson   Corona, CA3:12:49 34753  833 -
8 Eric Nelson   Arroyo Grande, CA3:13:10 108843  824 TeamTailwinds
9 Thomas Gates   Franklin, TN3:14:19 45364  813 -
10 Dale Luedtke   Oceanside, CA3:14:24 47262  817 -
11 Howard Miller   Long Beach, CA3:14:34 49424  821 -
12 Steve Truesdale   La Center, WA3:14:34 140938  837 -
13 Jack Sorahan   Glendale, AZ3:14:34 107762  832 -
14 Alan Johnson   Phoenix, AZ3:14:34 55012  816 -
15 Larry McCormick   Prescott, AZ3:14:34 141009  819 -
16 James Clune   Scottsdale, AZ3:14:34 51257  808 -
17 Steven Rhoades   Bainbridge Island, WA3:14:34 89290  842 EagleHarbor
18 Reed Moore   San Diego, CA3:14:50 61353  822 -
19 David Anderson   Monument, CO3:15:18 101497  800 PAA-MerrillLynch
20 Thomas Reilly   La Cresenta, CA3:15:39 155459  828 -
21 Victor Rodriguez   Las Vegas, NV3:16:37 76566  830 BigDogsRacing
22 Ricky Merideth   Las Vegas, NV3:17:09 138486  820 -
24 Joey Valdivia   San Diego, CA3:17:54 126668  838 -
25 Richard Roberson   Spring Valley, CA3:18:32 50765  829 -
26 Edward Eades   Tucson, AZ3:34:54 120337  811 -
27 Stephen Barnes   Riverside, CA3:34:54 100384  801 -
28 Floyd Pool   Alpine, CA3:35:24 81375  826 -
29 Joseph Mastro   Anaheim, CA3:39:46 151059  818 -

Men - Master - MR - 50-99

 Place NameCity, StateTime USAC #BibTeam
1 John Rubcic   Hemet, CA2:22:20 48760  915 -
2 James Miller   Oceanside, CA2:22:25 48244  912 CeloPacific
3 James Kuhn   Flagstaff, AZ2:22:30 40971  908 -
4 Robert Carter   Coronado, CA2:22:50 144111  903 -
5 Hylton Murphy   Escondido, CA2:22:50 72995  913 -
6 Edwin Webb   Fort Lauderdale, FL2:22:50 115390  922 TeamRPM
7 Kurt Kamm   Malibu, CA2:22:50 59543  907 -
8 Kirk Spindelman   Oceanside, CA2:22:50 45962  918 -
9 Donald Williams   Los Angeles, CA2:22:50 38334  925 -
10 Charlie Brown   Prescott, AZ2:22:50 92212  926 -
11 Stephan Matthews   Palm Desert, CA2:22:50 22949  910 B&LBike
12 G Michael Bishop   Fresno, CA2:22:50 170382  901 -
13 Haroldo Camacho   Cathedral City, CA2:23:00 166699  927 P.A.A
14 Robert Llamas   Montrose, CA2:23:18 162224  909 -
15 Domenick Forte   Monrovia, CA2:23:54 45342  906 -
16 Joseph Wells   Phoenix, AZ2:29:17 48252  923 -
17 Richard Brown   Phoenix, AZ2:29:26 121736  902 -

Men - Pro/Cat 1

 Place NameCity, StateTime USAC #BibTeam
1 Jonas Carney   Golden, CO4:21:40 45168  157 TeamPrimeAlliance.com
1 Jason Waddell   Oklahoma City, OK4:21:45 110309  150 -
2 Ryan Lane (1 - Pro)   Camarillo, CA4:21:45 69437  123 -
2 Russell Hamby   Napa, CA4:21:45 55362  159 ParkCity
3 Michael Tillman   Pacific Palisades, CA4:21:45 59904  146 -
3 Victor Ayala   Los Angeles, CA4:21:45 128496  100 -
4 Ryan Barrett   Provo, UT4:22:16 2708  101 -
4 Kenneth Toman   Santa Monica, CA4:21:45 52224  147 Schroeder/Incycle
5 Gregg Medinilla   Santee, CA4:28:33 53667  130 -
5 Brian Forbes   Mesa, AZ4:21:45 65615  114 -
6 Michael Johnson   Mission Viejo, CA4:28:33 110745  119 -
6 Craig Turner   Redlands, CA4:21:45 79177  148 CycleryUSA/Trek-VW
7 Christopher McGovern   Nevada City, CA4:21:45 23487  129 -
8 William Skimmer   Hampden, MA4:21:45 127937  161 SaturnCyclingTeam
9 Eric Abrams   Tucson4:21:45 64902  139 WhiteMountain
10 Jeff Prinz   Cleveland4:21:45 131478  140 -
11 Charles Coyle   Boulder, CO4:21:45 102604  109 -
12 Joshua Goodwin   Rancho Cucamonga, CA4:22:18 101136  116 -
13 Kevin Nugent   Denver, CO4:22:26 47265  136 ExcelSportsBoulder
14 Will Letendre Jr.   Etna, NH4:22:38 20980  125 -
15 Will Black   Austin, TX4:23:01 58540  103 -
16 James White   Santa Barbara, CA4:23:23 52363  153 -
17 Benjamin Sharp   Boulder, CO4:23:36 56190  145 -
18 John DeLong   Blacksburg, VA4:24:10 61583  111 -
19 Sean Watkins   Carlsbad, CA4:33:52 37362  152 -
20 Warney Crosby   Dallas4:42:03 69378  110 -
21 Ryan Sabga   Denver, CO4:54:01 98814  144 -
22 Dean LaBerge   Napa, CA5:00:05 67041  122 -
23 Nicklaus Kiernan   Euless, TX5:01:26 95282  121 -
24 Michael Gibson   Golden, CO5:04:44 59548  115 -

Men - Cat 2

 Place NameCity, StateTime USAC #BibTeam
1 Chad Hartley   Fox Point, WI4:14:33 126996  219 TeamCbike.com
2 Ryan McKinney   Reston, VA4:14:55 97634  247 -
3 Stanley Bunn   Carlsbad, CA4:15:10 115910  207 -
4 Karl Bordine   Carlsbad, CA4:15:10 163315  205 -
5 Harry Clark   Carmel, IN4:15:28 65323  209 -
6 Ryan Nenninger   Iowa City, IA4:15:38 123851  251 HinckleySpringsRacingTTucson
7 Leonard Tullous   Tucson, AZ4:15:38 36057  278 -
8 Corky Kurtz   Flagstaff, AZ4:15:38 80186  237 CorkyKurtz-FairWheelerScottsdale
9 Mike McMahon   Lake Forest, CA4:15:43 23731  248 -
10 Eric Brownell   East Hartford, CT4:15:58 144563  206 HoneywellCycling
11 Joe White   Summerland, CA4:15:58 37972  283 -
12 Clayton Peck   Mesa, AZ4:15:58 27558  256 -
13 Greg Hritzo   Apache Junction, AZ4:15:58 52188  227 -
14 Nicholas Onate   San Diego, CA4:15:58 125567  254 -
15 Jacob Rubelt   Tucson, AZ4:15:58 79833  268 -
16 Ryan Leech   State College, PA4:15:58 20753  239 -
17 Robert Harple   S Dartmouth, MA4:15:58 145522  218 -
18 Waylon Helgeson   San Diego, CA4:15:58 125709  221 -
19 Eric Small   Tucson, AZ4:15:58 41058  273 EclipseRacing
20 Philip Martin   Chandler, AZ4:15:58 61578  244 -
21 Michael Lange   Golden, CO4:15:58 102660  238 -
22 Brad Reed   Charlotte, NC4:15:58 29370  260 -
23 Erik Kuhlman   4:15:58  235 -
24 Peter Lopinto   Boulder, CO4:15:58 99876  240 EclipseRacing
25 Torsten Lyon   Golden, CO4:15:58 114781  242 -
26 Joshua Anthony   Billerica, MA4:15:58 152973  201 -
27 Jason Bache   Tucson, AZ4:15:58 99179  202 -
28 Kevin Kirkwood   Scottsdale, AZ4:15:58 47269  232 -
29 Adam Watts   Spring Lake, MI4:15:58 94669  282 -
30 Eric Reber   Parker, CO4:15:58 77087  259 -
31 Scott Raymond   Cypress, CA4:15:58 60314  258 -
32 Guy Coffey   Littleton, CO4:15:58 42168  210 AmericanCyclingAssoc.
33 Keith Henry   Lithonia, GA4:15:58 15856  222 Unattached
34 Oliver Stiler-Cote   Kennebunkport, ME4:15:58 118540  275 -
35 Paul Rogers   Madison, WI4:15:58 118407  266 -
36 Craig Wohlschlaeger   Montecito , CA4:15:58 121452  285 -
37 Jon Davis   Woodland Hills, CA4:15:58 114543  213 -
38 Mark Wald-Hopkins   Los Alamos, NM4:15:58 109626  281 EclipseRacing
39 Christopher Zukowski   Riverside, CA4:15:58 39558  286 InlandRadsport
40 Terry Beenken   Mankato, MN4:15:58 3163  203 NatureValley-PennCycle
42 Tony Olsen   San Diego, CA4:15:58 45754  253 -
43 Stuart Hughes   4:15:58  228 -
44 Billy Allen   Sandy, UT4:15:58 77303  200 -
45 Michael Eberlein   Alexandria, MN4:15:58 147523  214 NatureValley-PennCycle
46 Richard Craig   Cumming, GA4:15:58 54519  211 -
47 Brian Keate   4:15:58  231 -
48 Joseph Holmes   Bainbridge Island, WA4:16:12 16599  225 -
49 Michael Stewart   San Diego, CA4:16:12 87489  274 -
50 Dave Rimron   4:16:26  265 -
51 David Reid   Mesa, AZ4:16:26 60513  261 Landis/Trek/VW
52 Timothy Reinhart   Portland, OR4:16:26 64324  262 -
53 Ophir Sephia   Grand Junction Co4:16:26 40420  271 -
54 Mark Klingsberg   Fullerton, CA4:16:26 19393  233 -
55 John Topoleski   Redlands, CA4:17:10 80002  277 CycleryUSA/Trek-VW
56 Joseph Sinz   La Mirada, CA4:22:20 66552  272 -
57 Julio Flores   Long Beach, CA4:22:53 40630  216 -
58 Richard Thomas   Las Vegas, NV4:28:52 71023  276 -
59 David Maxwell   Peoria, AZ4:29:56 87660  245 -
60 Roger Rilling   Los Angeles, CA4:31:46 72073  264 -
61 Michael McCalla   Santa Fe, NM4:42:43 23198  246 -
62 Kevin Kruger   Carlsbad, CA4:44:58 19896  234 -

Men - Cat 3

 Place NameCity, StateTime USAC #BibTeam
1 Eric Sternlicht   Orange, CA4:06:19 58144  370 -
2 Mark Pearson   Calimesa, CA4:06:25 86969  359 -
3 Nathan Dills   Mountain Home, ID4:06:30 9525  321 -
4 Rick Bucher   Carefree, AZ4:06:30 5317  312 -
5 Chris DeMarchi   Chino, CA4:06:30 9156  319 -
6 Bill Wheeler   Phoenix, AZ4:06:40 176801  378 -
7 Michael Jones   Harford, NY4:06:40 18224  342 -
8 Dan Philbin   4:06:40  360 -
9 Jon Stierwalt   Portland, OR4:06:40 73242  371 -
10 Dan Distefano   Tucson, AZ4:06:40 89997  322 EclipseRacing
11 Jason Henry   Fpo, AE4:06:40 165824  334 -
12 David Straus   Phoenix, AZ4:06:40 34380  372 -
13 Phillip Sublette   Tucson, AZ4:06:40 143571  373 -
14 Mark Fosenburg   Phoenix, AZ4:06:40 143238  330 HoneywellCycling
15 Roberto Martinez   Pittsburg, CA4:06:40 158189  352 -
16 Erik Bender   San Diego, CA4:06:40 67077  304 -
17 Grant Berry   Durango, CO4:06:40 148636  305 -
18 Scot Klingmann   4:06:40 169575  347 TeamRevolutionRacing
19 Charles Royalty   Tempe, AZ4:06:40 153317  362 HoneywellCycling
20 Jeffrey Dresser   Newport Beach, CA4:06:40 57782  323 -
21 Joseph Weickgenant   Oceanside, CA4:06:40 60998  377 -
22 Robert Riley   Casa Grande, AZ4:06:40 89831  379 HoneywellCycling
23 Andrew Karapelou   Phoenix, AZ4:06:40 142280  343 -
24 Nicholas Traggis   Boulder, CO4:06:40 108501  374 -
25 Jeff Hall   Irvine, CA4:06:40 155149  333 -
26 Lorien Anderson   Tucson, AZ4:06:40 81677  301 EclipseRacing
27 Sean Cahill   4:06:40 81499  313 -
28 Carlos (Matias) Mendigochea   Inglewood, CA4:06:40 64908  353 -
29 Paul Hewes   San Francisco, CA4:06:40 167320  336 -
30 Brad Bochart   Tempe, AZ4:06:40 176618  309 -
31 Jason Karew   Cincinnati, OH4:06:40 133936  344 -
32 Gilbert Correa   La Verne, CA4:06:40 41138  317 -
33 Jeffrey Hoppert   Tucson, AZ4:06:40 109348  340 EclipseRacing
34 Matt Forquer   Anaheim, CA4:06:40 142989  329 Schroeder/Incycle
35 Paul Gravesande   Highland, CA4:06:40 141407  332 -
36 David Nocera   Apple Valley, CA4:06:40 57701  357 -
37 Guido Quezada   Long Beach, CA4:06:53 106988  361 -
38 Brock Boring   Scottsdale, AZ4:06:53 134433  311 -
39 Bryan Krouse   Santa Barbara, CA4:06:57 102556  348 -
40 Ron Hodge   Banning, CA4:07:15 91774  338 -
41 Matt Shriver   Durango, CO4:07:25 110703  368 -
42 Grant Parris   Henderson, NV4:07:28 140858  358 -
43 Craig Goodin   Temecula, CA4:08:22 155648  331 -
44 Abel Sanchez   Redlands, CA4:09:13 147875  364 7UpCitrusValleyVelo
45 Gerald Biehle   Phoenix, AZ4:10:37 51386  306 -
46 Kirk Blalock   Orange, CA4:17:29 62174  308 -
47 Glenn Ford   San Clemente, CA4:22:05 94055  328 -
48 Gregory Kilroy   Phoenix, AZ4:28:01 19113  345 -
49 Shaun Albin   Lake Oswego, OR4:28:01 1294  300 -
50 Nicholaus Schreiber   Tucson, AZ4:33:31 93359  366 -
51 Erik Mills   Santa Barbara, CA4:34:12 107789  354 -
52 Jason Elfenbein   New York, NY4:34:12 167332  325 -
53 Jeff Dillon   Folsom, CA4:37:43 9524  320 FlagstaffVelo
54 Scott Manning   Colton, CA4:40:16 72407  351 CycleryUSA/Trek-VW
55 William Egan   Chandler, AZ4:48:02 72149  324 WhiteMountainRoadClub

Men - Cat 4

 Place NameCity, StateTime USAC #BibTeam
1 Michael Sterr   Anaheim, CA3:06:37 175012  455 TeamVelocity
2 Babak Saraf   Los Angeles, CA3:06:42 71538  451 -
3 Jeremie Texier   3:06:47  457 -
4 Shane Broussard   Las Vegas, NV3:06:52 97060  405 -
5 Darik Russell   Chandler, AZ3:06:57 142123  447 -
6 Mark Comaniuk   Surprise, AZ3:06:57 21448  412 -
7 Bryce Weber   Murrieta, CA3:06:57 177740  462 -
8 Joshua Smith   Eugene, OR3:06:57 167468  453 -
9 Sean Regan   Encinitas, CA3:06:57 100193  444 -
10 Clemon Gavin   Spring Valley, CA3:06:57 156545  420 -
11 Chris Sproul   Camarillo, CA3:06:57 33683  454 -
12 Scott Haines   Lakewood, CO3:06:57 110568  422 -
13 Ryan Josh   San Antonio, TX3:06:57 167671  470 -
14 James Salazar   San Diego, CA3:06:57 175390  449 -
15 Lenny Ledbetter   Norwalk, CA3:06:57 174236  429 -
16 Matthew Holecko   Scottsdale, AZ3:06:57 148285  425 ArizonaStateCycling
17 Tedd Jacobson   Pewaukee, WI3:06:57 161238  426 -
18 Kenneth (Kenny) Stewart   Trabuco Canyon, CA3:06:57 141238  456 -
19 Trevor Krueger   Durango, CO3:06:57 156437  428 -
20 Ken Gallegos   Las Vegas, NV3:06:57 166014  419 -
21 Mark Venti   Mesa, AZ3:06:57 149570  459 Procon-BikeShowcase
22 Nicholas Trusty   Millersville, PA3:06:57 2  469 -
23 Tobias Panek   Poway, CA3:06:57 166826  439 So.BayWheelman
24 Paul Tiangco   Long Beach, CA3:06:57 112986  458 -
25 Bob Krauth   Redondo Beach, CA3:06:57 115448  427 -
26 Rene Lucas   Phoenix, AZ3:06:57 57849  431 -
27 Victor Matloff   Newport Beach, CA3:06:57 166813  434 -
28 Leland Rusk   Austin, TX3:06:57 113100  446 -
29 Joseph Wenninger   Laguna Niguel, CA3:06:57 151221  464 -
30 Richard Albrow   Bend, OR3:06:57 159007  401 TeamB&L
31 Gregory Clarke   Santa Ana, CA3:07:34 82488  410 -
32 David McHugh   Tempe, AZ3:07:59 106305  435 -
33 Troy Raffelson   El Cajon, CA3:08:04 166260  443 -
34 Ken Burns   Upland, CA3:08:26 95649  408 Schroeder/Incycle
35 Steven Hansen   Lakewood, CA3:08:26 152733  424 -
36 Kevin Brown   Tempe, AZ3:08:26 5107  406 -
37 Todd Wurtz   Jacksonville, FL3:09:21 88095  467 -
38 Ed Burnett   Anaheim, CA3:09:32 99934  407 -
39 Floyd Smith   Auburn, ME3:09:32 118974  452 -
40 Anthony Piazza   Mesa, AZ3:09:45 108192  441 -
42 Jonathan Whitney   Lafayette, CO3:11:12 61566  465 TeamProCyclery
43 Kris Wells   La Mesa, CA3:11:29 744  463 -
44 Mark Agcaoili   Denver, CO3:11:29 148727  400 -
45 Mark Cato   Redding, CA3:12:00 166954  409 -
46 Darrell McPherren   Chula Vista, CA3:17:39 116628  436 SanDiegoCycloVets
47 Craig Hamilton   Phoenix, AZ3:17:43 166357  423 -
48 Eric Cruz   Mesa, AZ3:19:49 111615  415 -
49 Richard Doan   Chino, CA3:23:00 9630  416 -
50 L Todd Salzman   Fullerton, CA3:23:00 126344  450 -
51 Timothy Madden   Berthoud, CO3:26:11 50211  432 -
52 Marcus Moffett   Spring Hill, FL3:31:11 122913  437 -
53 Eric Reiser   Yucaipa, CA3:31:59 166364  445 -
54 Jay Prasuhn   3:33:17  442 -
55 Marcos Flores   Kellogg Idaho3:44:30 162710  418 -

Men - Cat 5

 Place NameCity, StateTime USAC #BibTeam
1 Brent Garrigus   Encinitas, CA2:23:51 177187  509 -
2 David Mitzner   2:24:11  527 InlandSunsetVelo
3 Andy Brown   Solana Beach, CA2:24:11 178391  503 -
4 Jason Mauer   Portland, OR2:24:16 132433  545 -
5 Brian Manning   Las Vegas, NV2:24:16 121380  522 -
6 Barry Lasko   Henderson, NV2:24:21 171774  549 LasVegasProCyclery
7 Michele Brocato   Lafayette, CA2:24:21 177046  501 -
8 Brian Murphy   Temecula, CA2:24:21 139152  529 -
9 Eric Broussard   Las Vegas, NV2:24:21 165830  502 -
10 Matt Weaber   Encinitas, CA2:24:21 167410  541 -
11 Chris Poole   Phoenix, AZ2:24:21 120794  531 -
12 Walt Wehner   Boulder, CO2:24:21 162165  542 -
13 Jeremy Murdock   Vacaville, CA2:24:21 174324  528 -
14 Jedediah Hazen   Bakersfield, CA2:24:21 177377  511 -
15 Steve Dunn   Millersville, PA2:24:21 2  504 ProCyclery
16 Fred Goll   Henderson, NV2:24:21 177016  510 -
17 Ken Johnson   Temecula, CA2:24:21 172715  518 -
18 Dave Herbst   Carlsbad, CA2:24:21 178583  515 -
19 Stan Freeman   Las Vegas, NV2:24:21 176749  508 -
21 David Lipinski   Tempe, AZ2:24:21 177186  520 -
23 Jason (Jake) Hennen   Scottsdale, AZ2:24:34 176991  514 -
24 Patrick McIntosh   Peoria, AZ2:25:09 126531  524 -
25 Anthony Shute   Spring Valley, CA2:25:09 177221  534 -
26 Mark-Devin Verdejo   Chandler, AZ2:25:09 175068  540 -
27 Erich Ewy   Chandler, AZ2:25:09 93658  506 unattached
28 Kelly Hearn   Covina, CA2:25:09 142844  512 -
29 Joseph Hudon   Temecula, CA2:25:52 177010  516 -
30 Eric Brandt   Gilbert, AZ2:26:10 4634  500 -
32 Eric Stephen   Simi Valley, CA2:39:30 176771  537 -
33 Choosak Wonggaew   Tustin, CA2:47:16 165148  543 -
34 Kevin Miller   Mesa, AZ2:49:11 178097  526 -

Women - Junior - JR - 10-14

 Place NameCity, StateTime USAC #BibTeam
1 Tori Wilson   Lakeside, CA2:19:27 164321  966 -

Women - Junior - JR - 15-18

 Place NameCity, StateTime USAC #BibTeam
1 Melissa Bishop   Oceanside, CA2:02:14 175011  953 -

Women - Pro/Cat 1/2

 Place NameCity, StateTime USAC #BibTeam
1 Ashley Kimmet (1 - Pro)   Allentown, PA3:43:04 102427  618 -
1 Cheryl Binney   San Francisco, CA3:36:14 73494  600 -
1 Rebecca Cooke   Easthampton, MA3:36:09 78869  604 Landis/Trek/VW
2 Deborah Durand   San Diego, CA3:43:04 48599  606 -
2 Colleen Kelly   Carlsbad, CA3:36:14 18816  615 -
3 Aileen Loe   Arroyo Grande, CA3:43:04 92993  621 JaneCosmetics
3 Pamela Heilgeist   W Covina, CA3:42:59 114453  639 ParamountRacing
4 Patricia Choo   San Diego, CA3:43:04 140929  603 -
5 Jennifer Gabet   Goleta, CA3:43:04 81808  608 -
6 Amy Hutner   Los Angeles, CA3:43:04 50234  611 LaGrangeBristolFarms
7 Lauri Lewis   San Diego, CA3:43:04 21090  620 -
8 Jennifer Buntz   Albuquerque, NM3:43:04 46309  602 Landis/Trek/VW
9 Melissa Lemke   Phoenix, AZ3:54:33 68555  619 Landis/Trek/VW

Women - Cat 4

 Place NameCity, StateTime USAC #BibTeam
1 Laura Perdew   Irvine, CA2:20:56 73658  679 SimplyFit
2 Angela VanDyke   Vista, CA2:20:56 124226  688 -
3 Joanna Bieri   Flagstaff, AZ2:21:01 177990  652 -
4 Kathleen Hawthorne   Carlsbad, CA2:21:06 158160  670 -
5 Marisa Russell   2:21:06  680 -
6 Dolly Ginter   2:21:11  667 -
7 Jana Minka   La Mesa, CA2:21:11 154745  678 -
8 Vicki Young   Las Vegas, NV2:21:11 172989  690 -
9 Alexandra Tabata   Riverside, CA2:21:11 171362  685 TeamVeloCity
10 Lynn Albrow   Bend, OR2:21:11 159008  651 TeamB&L
11 Kristin Doerschlag   Boise, ID2:21:11 176619  660 Schroeder/Incycle
12 Jennifer Kanipe   Tucson, AZ2:22:16 129388  671 -
13 Helenlisle King   Prescott Valley, AZ2:25:39 54582  672 -
14 Marcee Zari   2:25:46  691 -
15 Janet Church   Anaheim, CA2:26:39 166527  655 -
16 Bernadette Brake   Irvine, CA2:28:15 167109  653 -
17 Linda Skinker   Tucson, AZ2:33:34 72249  683 -
18 Toni Tagami   Riverside, CA2:33:44 169863  686 InlandRadsport
19 Anna Scherzer   2:34:00  695 -
20 Lori Whynot   Arlington, MA2:34:15 142768  692 NEBCCycleloft/EMC
21 Heather Krauss   Millersville, PA2:34:37 2  673 -
22 Katharine Hardy   2:36:21  669 -
23 Karen Gee   Highland, CA2:37:39 126061  666 -
26 Karen Mark   2:46:38  677 DesertFoxes
27 Amy Dean   Mesa, AZ2:47:35 161983  659 MountainVelo/SuperGo
28 Jean Lansing   Huntsville, AL2:54:21 136552  675 So.BayWheelmen
29 Colleen Corey   2:57:14  657 -
30 Kathy Lehman   Las Vegas, NV3:05:29 177575  676 -
31 Zoe Cohen   3:05:29 42768  656 -

Report missing or incorrect license numbers

Volkswagen
OSMOSpyUSACDFCUORESierra NevadaShimanoBonk Breaker
UCI USA Cycling is the official governing body for all disciplines of competitive cycling in the United States. The 501c3, membership-based organization aims both to achieve sustained success in international cycling competition and to grow competitive cycling in America while delivering an exceptional customer experience.
View Children's Online Privacy Protection Policy
US Olympic Committee